Regional Weather Roundup
Issued by NWS

Home | Current Version | Previous Version | Text Only | Print | Product List | Glossary On
Versions: 1 2 3 4 5 6 7 8 9 10 11 12 13 14 15 16 17 18 19 20 21 22 23 24 25 26 27 28 29 30 31 32 33 34 35 36 37 38 39 40 41 42 43 44 45 46 47 48 49 50
000
ASUS44 KFWD 210915
RWRTX
NORTH TEXAS HOURLY WEATHER ROUNDUP
NATIONAL WEATHER SERVICE FORT WORTH TX
300 AM CST SAT JAN 21 2017

NOTE: "FAIR" INDICATES FEW OR NO CLOUDS BELOW 12,000 FEET WITH NO
SIGNIFICANT WEATHER AND/OR OBSTRUCTIONS TO VISIBILITY.

TXZ118-119-211000-
DALLAS/FORT WORTH METROPLEX

CITY           SKY/WX    TMP DP  RH WIND       PRES   REMARKS
DFW AIRPORT    CLEAR     50  46  86 S7        29.57F
DALLAS LOVE    PTCLDY    54  47  77 CALM      29.59F
FTW MEACHAM    CLEAR     54  44  69 CALM      29.57F
DAL-EXECUTIVE  CLEAR     56  49  77 CALM      29.58F
FTW-ALLIANCE   CLEAR     52  43  71 SW3       29.57F
FTW-NAS-JRB    CLEAR     50  46  86 CALM      29.57F
FTW-SPINKS     CLEAR     48  44  86 SE3       29.59F
ARLINGTON      CLEAR     45  42  89 SE3       29.58F
GRAND PRAIRIE  CLEAR     51  45  81 CALM      29.60F
ADDISON        CLEAR     56  50  81 S3        29.60F
MESQUITE       CLEAR     47  46  97 SE3       29.61S
LANCASTER      CLEAR     49  47  92 SE3       29.61F
$$

TXZ091>094-102>105-117-120-121-131>134-211000-
NORTH CENTRAL TEXAS

CITY           SKY/WX    TMP DP  RH WIND       PRES   REMARKS
SHRMAN/DENISON CLEAR     56  48  76 S12       29.57F
GAINESVILLE    CLEAR     49  35  58 CALM      29.59F
BOWIE          CLEAR     45  37  72 CALM      29.56F
BRIDGEPORT     CLEAR     45  38  77 CALM      29.58F
DECATUR        CLEAR     56  34  44 S8        29.56F
DENTON         CLEAR     48  41  76 CALM      29.57F
MCKINNEY       CLEAR     48  46  93 SE5       29.59F
BONHAM         CLEAR     52  46  82 S6        29.60S
GREENVILLE     CLEAR     45  45 100 CALM      29.62S
ROCKWALL       CLEAR     52  49  89 S7        29.61S
TERRELL        CLEAR     46  44  93 S3        29.62F
WAXAHACHIE     CLEAR     50  50 100 CALM      29.61F
CLEBURNE       CLEAR     48  46  93 SE3       29.59F
GRANBURY       PTCLDY    45  39  78 CALM      29.58F
$$

TXZ083>090-098>101-113>116-127>130-139>142-154-155-211000-
WESTERN NORTH TEXAS

CITY           SKY/WX    TMP DP  RH WIND       PRES   REMARKS
WICHITA FALLS  CLEAR     48  34  58 CALM      29.54F
WF-KICKAPOO    CLEAR     46  35  66 S5        29.56F
VERNON         PTCLDY    46  34  63 SW8       29.56F
ABILENE        PTCLDY    44  35  70 S5        29.59S
ABILENE-DYESS  CLOUDY    43  35  73 SW5       29.57S
GRAHAM         PTCLDY    41  36  81 CALM      29.55F
BRECKENRIDGE   PTCLDY    49  33  56 S5        29.56F
CISCO          CLEAR     46  32  57 S7        29.58F
RANGER         PTCLDY    48  36  61 SW7       29.56F
MINERAL WELLS  CLEAR     45  36  70 SE8       29.54F
STEPHENVILLE   CLEAR     44  36  71 CALM      29.59F
COMANCHE       CLEAR     47  41  80 CALM      29.58F
BROWNWOOD      CLEAR     39  37  93 CALM      29.59S
COLEMAN        CLOUDY    39  34  81 CALM      29.58F
$$

TXZ143>147-156>162-174-175-211000-
CENTRAL TEXAS

CITY           SKY/WX    TMP DP  RH WIND       PRES   REMARKS
WACO           CLEAR     44  44 100 E3        29.59F
WACO-MCGREGOR  CLEAR     50  48  93 CALM      29.58F FOG
HILLSBORO      CLEAR     53  50  89 SE5       29.60F
CORSICANA      CLEAR     54  51  90 SE5       29.62F
MEXIA          CLEAR     51  50  95 SE7       29.60F
HEARNE         MOCLDY    55  55  98 CALM      29.61F
CAMERON        CLEAR     52  51  95 E6        29.61S
TEMPLE         CLEAR     50  48  93 SE5       29.59F
KILLEEN        CLEAR     53  49  85 S6        29.56F
KILLEEN-SKYLRK CLEAR     47  46  97 E5        29.58F
FORT HOOD      CLEAR     53  47  81 E3        29.55F
GATESVILLE     CLEAR     48  45  87 CALM      29.59F
HAMILTON       CLEAR     49  46  87 E3        29.58F
LAMPASAS       CLEAR     46  44  94 CALM      29.57F
$$

TXZ095>097-106>112-122>126-135>138-148>153-164>167-211000-
EAST TEXAS

CITY           SKY/WX    TMP DP  RH WIND       PRES   REMARKS
PARIS          CLEAR     46  43  87 S3        29.61F
SULPHUR SPRNGS CLEAR     57  52  84 S8        29.64S
MOUNT PLEASANT PTCLDY    51  51 100 CALM      29.64F
GILMER         CLOUDY    54  51  89 S3        29.62F
MINEOLA        CLEAR     46  46 100 CALM      29.63S
TYLER          PTCLDY    52  50  93 S6        29.62F
LONGVIEW       CLOUDY    56  53  90 CALM      29.62F
MARSHALL       MOCLDY    53  50  90 CALM      29.64F
ATHENS         CLEAR     45  45 100 CALM      29.62R
PALESTINE      CLEAR     59  58  96 SE6       29.63F
JACKSONVILLE   CLEAR     60  56  89 CALM      29.64F
HENDERSON      CLEAR     54  52  92 CALM      29.64F
CENTER           N/A     59  58  96 SE3       29.65F FOG
NACOGDOCHES    CLEAR     55  52  88 CALM      29.63F
LUFKIN         CLOUDY    58  57  97 SE7       29.64F
$$

SUPPLEMENTAL OBSERVATIONS (CENTRAL)

CITY           SKY/WX    TMP DP  RH WIND       PRES   REMARKS
DENISON DAM      N/A     57  43  58 SW12        N/A
CADDO GRASSLND   N/A     54  48  82 S7          N/A
PAT MAYSE LAKE   N/A     52  48  87 SE8         N/A
GREENVILLE       N/A     52  48  87 S5          N/A
CEDAR HILL       N/A     55  48  76 S5          N/A
ATHENS           N/A     52  50  93 CALM        N/A
LAKE LIMESTONE   N/A     55  50  82 SE5         N/A
MCGREGOR         N/A     48  45  87 W2          N/A
TEMPLE           N/A     52  48  87 E2          N/A
$$

SUPPLEMENTAL OBSERVATIONS (WEST)

CITY           SKY/WX    TMP DP  RH WIND       PRES   REMARKS
MILLERS CREEK    N/A     43  37  81 SW1         N/A
POSSUM KINGDOM   N/A     52  32  46 SW1G10      N/A
LBJ GRASSLAND    N/A     54  36  50 SE6         N/A
GRANBURY         N/A     45  39  81 S1          N/A
COMANCHE         N/A     48  39  71 NW3         N/A
HAMBY            N/A     46  36  66 S2          N/A
IVIE RESERVOIR   N/A     45  34  65 NW1         N/A
COLORADO BEND    N/A     50  45  81 W3          N/A
$$

SUPPLEMENTAL OBSERVATIONS (EAST)

CITY           SKY/WX    TMP DP  RH WIND       PRES   REMARKS
CLARKSVILLE      N/A     54  50  87 SW2         N/A
TEXARKANA        N/A     50  48  93 CALM        N/A
LINDEN           N/A     52  48  87 CALM        N/A
GILMER           N/A     48  46  93 CALM        N/A
HENDERSON        N/A     55  52  88 CALM        N/A
LUFKIN           N/A     57  55  94 MISG        N/A
N SABINE NF      N/A     59  57  94 MISG        N/A
S SABINE NF      N/A     57  55  94 SW2         N/A
$$

SUPPLEMENTAL OBSERVATIONS ARE A COLLECTION OF AUTOMATED INSTRUMENTS
THAT ARE MAINTAINED BY A VARIETY OF FEDERAL AND STATE AGENCIES.
CERTAIN ELEMENTS...SUCH AS HUMIDITY VALUES AND SUSTAINED WIND
SPEEDS...MAY BE APPROXIMATED.





USA.gov is the U.S. government's official web portal to all federal, state and local government web resources and services.